Temp
-28 -29 -29 -31 -32 -32 -32 -32 -32 -31 -30 -32 -32 -32 -32 -32 -32 -32 -32 -32 -31 -30 -30 -28 -26 -25 -25 -24 -24 -23 -22 -22 -21 -20 -19 -18 -17 -16
-30 -30 -31 -31 -31 -32 -32 -32 -32 -32 -30 -31 -31 -32 -32 -32 -32 -32 -32 -32 -32 -32 -31 -30 -29 -27 -26 -25 -25 -24 -24 -24 -23 -22 -21 -20 -19 -18
-31 -31 -31 -31 -32 -32 -32 -32 -32 -32 -32 -32 -32 -32 -32 -32 -32 -32 -32 -32 -32 -32 -32 -31 -31 -29 -28 -26 -25 -25 -24 -24 -23 -23 -22 -22 -21 -19
-31 -31 -32 -32 -32 -32 -32 -32 -33 -33 -34 -34 -34 -34 -34 -34 -33 -33 -32 -32 -32 -32 -32 -32 -31 -31 -30 -28 -27 -25 -25 -24 -24 -24 -23 -23 -22 -21
-32 -32 -32 -32 -32 -32 -33 -33 -34 -34 -34 -34 -34 -34 -34 -34 -34 -34 -34 -33 -33 -32 -32 -32 -31 -31 -31 -30 -29 -27 -26 -25 -25 -25 -24 -24 -23 -22
-32 -32 -32 -33 -32 -33 -33 -33 -34 -34 -34 -34 -34 -35 -35 -35 -35 -35 -35 -35 -34 -33 -32 -32 -32 -31 -31 -31 -30 -29 -27 -26 -25 -26 -25 -25 -24 -23
-32 -32 -33 -32 -32 -33 -33 -34 -34 -34 -34 -34 -35 -35 -35 -36 -36 -36 -36 -35 -35 -34 -33 -32 -32 -31 -31 -31 -31 -30 -29 -27 -27 -26 -26 -25 -25 -24
-33 -33 -33 -33 -33 -33 -34 -34 -34 -34 -34 -34 -35 -35 -36 -36 -36 -36 -36 -36 -35 -34 -33 -32 -32 -31 -31 -31 -31 -31 -30 -29 -28 -27 -26 -26 -26 -25
-33 -33 -33 -33 -33 -33 -34 -34 -34 -34 -34 -35 -35 -36 -37 -37 -37 -37 -36 -36 -36 -35 -34 -33 -32 -32 -31 -31 -31 -31 -31 -30 -29 -29 -27 -26 -26 -26
-33 -33 -33 -33 -33 -33 -34 -34 -34 -34 -34 -35 -36 -37 -37 -37 -37 -37 -37 -37 -36 -35 -34 -34 -33 -32 -31 -31 -31 -31 -31 -31 -30 -30 -29 -28 -27 -25
-33 -33 -33 -33 -33 -33 -34 -34 -33 -34 -34 -35 -36 -36 -37 -37 -37 -37 -37 -36 -36 -35 -34 -34 -33 -32 -31 -31 -31 -31 -32 -32 -31 -30 -29 -28 -27 -27
-34 -33 -33 -33 -33 -33 -33 -34 -34 -34 -34 -35 -35 -36 -36 -36 -37 -37 -36 -36 -35 -34 -34 -34 -33 -32 -32 -31 -31 -31 -32 -32 -32 -32 -30 -29 -28 -27
-33 -33 -33 -33 -33 -33 -33 -34 -34 -34 -34 -34 -35 -35 -36 -36 -36 -36 -36 -35 -34 -34 -33 -34 -33 -33 -32 -31 -31 -31 -32 -32 -32 -32 -31 -31 -30 -29
-33 -33 -33 -33 -33 -33 -33 -34 -34 -33 -33 -34 -34 -35 -35 -35 -35 -35 -35 -35 -34 -34 -34 -34 -33 -32 -32 -31 -31 -31 -32 -32 -32 -32 -31 -31 -31 -30
-33 -33 -33 -34 -34 -34 -33 -34 -34 -33 -33 -34 -34 -34 -34 -34 -34 -34 -34 -34 -34 -34 -33 -33 -32 -32 -31 -31 -31 -31 -32 -32 -32 -32 -31 -31 -31 -30
-34 -33 -33 -34 -34 -34 -34 -33 -34 -34 -33 -33 -34 -34 -34 -34 -34 -34 -34 -33 -33 -33 -32 -32 -32 -31 -31 -31 -31 -31 -31 -32 -32 -31 -31 -31 -31 -30
-34 -34 -34 -34 -34 -34 -34 -34 -33 -33 -33 -33 -33 -34 -34 -34 -33 -33 -33 -33 -33 -32 -32 -31 -31 -31 -31 -31 -31 -31 -31 -31 -31 -31 -31 -31 -31 -30
-35 -35 -34 -34 -34 -34 -34 -34 -34 -34 -33 -33 -33 -33 -33 -33 -33 -33 -33 -33 -32 -32 -32 -31 -31 -31 -31 -31 -31 -31 -31 -30 -30 -30 -31 -31 -31 -31
-35 -35 -35 -35 -35 -35 -34 -34 -34 -34 -34 -33 -33 -33 -33 -33 -33 -33 -33 -33 -32 -32 -32 -31 -31 -31 -31 -31 -31 -31 -31 -31 -31 -31 -30 -30 -30 -31
-35 -35 -35 -35 -35 -35 -35 -35 -34 -34 -34 -34 -33 -33 -33 -33 -33 -33 -32 -32 -32 -31 -31 -31 -31 -30 -30 -30 -30 -30 -30 -30 -30 -30 -31 -31 -32 -33
-35 -36 -36 -36 -36 -36 -35 -35 -35 -35 -34 -34 -34 -34 -33 -33 -33 -32 -32 -32 -32 -31 -31 -31 -31 -31 -30 -30 -30 -30 -30 -30 -30 -30 -31 -31 -32 -32
-36 -36 -36 -36 -36 -36 -36 -36 -35 -35 -35 -34 -34 -34 -34 -33 -33 -33 -32 -32 -32 -32 -31 -31 -31 -31 -31 -31 -31 -31 -31 -31 -31 -31 -31 -31 -31 -31
-36 -36 -36 -36 -36 -36 -36 -36 -36 -36 -36 -35 -35 -34 -34 -34 -33 -33 -33 -32 -32 -32 -32 -32 -31 -31 -31 -31 -31 -31 -31 -31 -31 -31 -31 -31 -31 -31
Height
5493 5484 5476 5468 5462 5456 5450 5443 5438 5439 5439 5435 5431 5426 5422 5420 5420 5420 5422 5424 5428 5432 5438 5446 5457 5471 5484 5499 5511 5525 5538 5554 5562 5576 5591 5603 5614 5626
5478 5472 5466 5459 5452 5445 5437 5431 5425 5421 5419 5417 5416 5411 5408 5406 5405 5404 5408 5411 5414 5417 5421 5427 5435 5446 5458 5472 5486 5502 5515 5532 5543 5554 5569 5582 5594 5605
5469 5462 5455 5447 5440 5432 5425 5418 5411 5406 5400 5404 5397 5393 5391 5389 5388 5388 5391 5395 5398 5403 5408 5413 5418 5426 5435 5447 5462 5477 5495 5511 5525 5536 5547 5562 5573 5582
5458 5451 5444 5437 5428 5420 5412 5406 5399 5393 5388 5387 5384 5379 5374 5373 5370 5371 5373 5376 5381 5388 5393 5399 5404 5410 5417 5425 5438 5456 5473 5493 5508 5520 5527 5545 5552 5563
5448 5441 5433 5425 5417 5409 5402 5395 5389 5383 5377 5371 5372 5364 5359 5356 5355 5354 5355 5358 5363 5370 5377 5384 5390 5396 5402 5410 5419 5433 5450 5470 5488 5501 5511 5521 5535 5545
5438 5430 5422 5413 5406 5399 5392 5386 5380 5373 5366 5359 5355 5348 5342 5339 5336 5336 5338 5341 5345 5352 5361 5369 5377 5384 5390 5397 5404 5415 5429 5447 5466 5480 5493 5504 5516 5526
5428 5421 5412 5403 5395 5388 5382 5377 5370 5363 5355 5346 5339 5332 5325 5321 5319 5319 5321 5325 5329 5335 5343 5352 5362 5370 5378 5384 5390 5400 5411 5427 5443 5461 5477 5490 5497 5510
5420 5411 5402 5394 5387 5379 5373 5367 5360 5352 5343 5332 5323 5315 5310 5306 5304 5304 5305 5308 5314 5319 5327 5337 5347 5355 5364 5372 5379 5387 5396 5408 5424 5440 5459 5470 5478 5492
5410 5402 5394 5385 5378 5372 5367 5359 5351 5341 5330 5319 5310 5302 5297 5294 5292 5291 5292 5295 5300 5307 5316 5325 5334 5342 5351 5360 5368 5377 5384 5393 5406 5420 5437 5450 5462 5474
5401 5393 5385 5377 5370 5364 5359 5352 5344 5333 5322 5310 5300 5292 5287 5285 5282 5282 5284 5287 5292 5299 5308 5317 5323 5331 5340 5350 5359 5367 5375 5382 5393 5406 5418 5432 5444 5456
5393 5385 5376 5369 5362 5357 5352 5346 5337 5326 5315 5304 5293 5286 5281 5278 5277 5278 5279 5282 5288 5295 5302 5308 5314 5322 5332 5341 5349 5357 5364 5372 5381 5391 5403 5416 5428 5438
5386 5377 5369 5362 5356 5351 5346 5340 5332 5322 5312 5300 5290 5284 5279 5276 5276 5276 5278 5281 5286 5292 5297 5303 5307 5315 5323 5332 5340 5348 5356 5365 5372 5380 5390 5401 5408 5419
5379 5370 5362 5356 5350 5345 5340 5335 5328 5319 5310 5300 5291 5284 5279 5277 5276 5277 5278 5280 5284 5288 5293 5297 5301 5308 5316 5325 5334 5342 5349 5356 5364 5371 5379 5388 5396 5403
5371 5364 5356 5351 5345 5340 5336 5331 5325 5317 5309 5301 5293 5286 5281 5279 5278 5278 5279 5280 5283 5287 5290 5292 5297 5304 5312 5321 5329 5337 5343 5350 5357 5364 5371 5377 5384 5393
5365 5358 5351 5346 5341 5335 5331 5328 5323 5316 5310 5302 5296 5291 5286 5282 5280 5279 5279 5280 5282 5285 5288 5292 5297 5303 5310 5317 5325 5331 5337 5344 5349 5356 5363 5370 5376 5382
5360 5353 5346 5341 5337 5333 5327 5324 5321 5316 5310 5304 5299 5294 5290 5287 5285 5283 5282 5282 5283 5286 5289 5292 5297 5302 5308 5314 5321 5327 5332 5338 5342 5348 5355 5361 5367 5372
5356 5349 5343 5337 5332 5328 5324 5320 5318 5315 5310 5306 5301 5297 5293 5290 5288 5287 5286 5286 5286 5288 5290 5293 5297 5302 5307 5312 5317 5322 5327 5331 5336 5340 5346 5351 5357 5362
5353 5347 5340 5334 5329 5325 5321 5317 5314 5312 5309 5306 5303 5299 5296 5293 5290 5289 5288 5288 5289 5290 5292 5294 5297 5301 5304 5309 5313 5317 5320 5324 5328 5333 5337 5342 5346 5350
5351 5345 5338 5332 5327 5322 5318 5315 5311 5309 5308 5306 5303 5301 5298 5296 5294 5292 5291 5290 5291 5291 5293 5295 5297 5299 5302 5305 5308 5311 5314 5318 5321 5324 5327 5330 5333 5336
5347 5342 5336 5330 5324 5319 5315 5312 5309 5306 5304 5303 5302 5300 5299 5297 5296 5295 5294 5293 5293 5294 5295 5297 5299 5301 5304 5306 5308 5310 5313 5316 5318 5320 5322 5324 5325 5324
5343 5338 5333 5329 5323 5317 5312 5308 5305 5303 5300 5299 5299 5298 5297 5297 5296 5296 5296 5296 5296 5297 5298 5299 5301 5303 5305 5307 5309 5311 5313 5315 5317 5318 5319 5320 5321 5321
5337 5334 5330 5325 5321 5316 5310 5305 5301 5299 5297 5295 5294 5294 5294 5294 5294 5294 5295 5295 5295 5296 5298 5299 5301 5303 5305 5307 5308 5310 5312 5313 5315 5316 5317 5318 5319 5320
5332 5328 5325 5321 5317 5313 5308 5303 5299 5294 5292 5290 5288 5288 5288 5289 5290 5290 5291 5292 5293 5294 5295 5297 5299 5300 5302 5304 5306 5308 5309 5311 5312 5313 5315 5316 5317 5319
Wind_Speed
67 56 49 42 41 43 46 49 50 44 39 40 42 45 47 47 43 41 38 41 45 49 55 66 77 88 92 89 90 87 89 82 87 86 84 84 84 82
50 44 41 41 43 47 49 49 52 50 45 43 43 46 47 48 49 48 43 40 40 44 47 52 62 71 81 88 88 87 87 81 82 86 83 82 85 86
43 40 43 45 47 49 51 51 49 50 52 44 45 44 43 46 49 51 50 47 45 44 43 46 52 64 76 81 84 88 88 86 81 80 84 82 85 90
42 44 46 47 49 50 48 48 47 41 43 42 42 43 44 41 42 47 51 54 52 48 46 46 47 53 66 77 83 84 87 85 83 72 69 80 84 86
43 46 48 49 49 46 45 42 38 42 45 46 40 44 44 44 45 45 43 50 55 54 51 48 47 47 52 65 76 85 85 87 85 86 76 73 81 83
45 48 50 49 47 43 41 37 39 42 44 47 46 45 45 43 44 45 45 43 49 54 55 53 49 48 48 50 63 76 86 87 88 90 81 83 81 81
45 48 48 48 44 43 37 37 40 42 46 48 47 45 41 39 39 41 42 43 43 48 51 53 52 50 49 48 50 58 75 87 89 91 84 87 83 79
45 47 46 47 41 38 35 38 40 44 47 48 46 40 35 34 34 37 40 38 37 44 45 47 48 50 51 50 48 49 58 77 85 89 84 76 76 83
45 46 45 44 39 33 33 36 40 46 48 47 42 34 30 29 31 30 30 27 32 38 39 40 44 47 50 51 48 46 48 62 73 82 92 81 81 79
45 44 44 39 37 30 31 35 39 43 45 42 38 29 27 24 24 21 21 21 26 29 32 33 39 43 47 49 47 45 45 50 67 70 76 88 79 85
43 43 42 34 34 29 30 32 37 41 42 38 32 24 20 18 14 12 13 16 20 23 25 29 35 40 44 47 47 45 43 45 55 73 73 82 79 87
41 42 37 31 31 27 28 31 35 37 38 34 28 20 16 10 7 7 9 12 16 18 19 24 31 37 41 46 47 43 42 44 42 46 60 77 73 75
39 38 32 27 29 25 26 29 32 34 35 31 26 19 13 7 3 4 6 11 15 19 20 22 28 33 38 43 44 41 41 42 41 39 45 51 63 75
37 36 30 25 27 23 23 27 29 31 31 29 26 21 14 8 2 2 7 10 14 15 15 20 25 29 33 37 38 38 38 41 41 44 43 47 48 56
35 34 30 24 25 25 21 23 26 27 27 27 23 20 17 12 6 2 3 6 8 10 13 17 20 23 27 31 33 31 34 37 38 42 43 40 44 47
34 33 30 25 22 24 21 19 21 23 24 23 22 18 14 12 9 6 5 5 6 8 11 14 17 20 22 25 27 27 28 31 34 37 44 45 40 42
33 33 31 28 25 23 23 18 18 19 19 20 18 16 14 9 5 3 4 7 8 9 11 13 15 18 20 22 24 25 27 28 30 35 40 45 47 48
31 32 30 28 24 21 21 19 16 16 17 16 15 13 11 10 7 3 1 3 6 8 10 12 13 16 18 21 23 25 26 28 30 33 37 41 45 49
28 31 31 29 25 21 19 19 18 15 15 14 13 11 9 7 6 6 6 6 7 9 9 10 11 11 12 13 15 18 19 20 22 25 29 35 40 46
25 28 31 31 29 25 20 19 18 16 14 14 12 10 9 5 3 2 4 7 9 10 11 11 11 11 11 11 11 12 13 13 13 13 13 12 10 11
25 26 28 29 30 28 24 20 18 17 17 15 14 12 10 9 5 4 5 6 8 10 11 11 11 11 11 12 12 12 11 10 9 9 7 7 7 7
24 24 26 28 29 29 28 24 20 17 16 16 17 17 14 12 12 10 9 10 10 11 11 11 12 12 11 11 12 11 11 10 9 8 7 6 6 8
24 24 24 25 27 28 29 28 24 20 18 18 17 18 21 18 15 15 16 15 15 15 15 15 15 14 14 14 14 13 13 12 11 11 10 9 9 8
Wind_Direction
309 308 306 303 303 302 302 302 302 297 290 288 284 278 275 274 272 268 261 253 247 243 241 239 238 237 236 233 232 230 233 231 234 233 230 227 229 229
313 312 310 306 306 307 306 304 302 300 296 294 287 280 274 270 267 265 260 253 246 242 237 235 231 229 232 233 231 229 229 226 230 233 230 228 227 229
309 313 316 313 311 310 306 305 304 303 300 299 294 287 279 270 263 259 257 253 247 242 238 235 231 227 224 226 228 228 227 224 225 232 231 228 228 227
311 318 318 315 313 310 308 307 305 303 302 302 298 293 288 282 272 260 253 250 247 243 238 234 234 231 228 224 223 225 225 221 223 223 228 231 229 228
314 318 320 316 314 311 309 307 304 305 304 304 302 296 288 282 275 270 262 250 246 241 238 233 231 232 231 229 226 221 220 221 219 221 224 227 229 230
317 320 319 316 316 312 311 307 307 307 306 305 304 298 292 282 274 267 264 261 247 241 238 235 232 230 232 231 230 226 219 217 218 222 226 229 230 231
318 319 319 318 317 315 311 310 310 310 310 309 306 300 291 281 272 266 263 260 252 240 237 235 232 229 227 229 231 228 225 218 215 219 224 227 228 227
318 320 320 319 317 313 311 314 313 315 315 314 310 303 290 280 271 267 267 260 244 234 234 232 229 226 224 224 227 228 227 223 218 216 213 218 225 226
321 321 321 319 317 311 313 316 318 321 321 319 316 305 293 282 279 274 264 249 230 227 229 228 225 223 221 221 223 224 227 223 220 219 213 217 222 221
322 322 322 317 318 314 317 320 323 325 327 324 321 310 297 289 282 270 257 239 223 222 224 224 225 221 218 218 221 223 225 225 219 219 219 216 220 220
322 323 324 319 319 315 319 325 329 331 333 331 330 319 309 299 281 269 245 222 216 218 220 219 222 218 216 215 218 220 223 218 221 221 215 214 216 223
324 326 325 320 321 317 322 330 334 336 340 340 342 334 330 313 283 260 237 216 207 205 210 215 222 216 214 214 216 219 221 220 224 222 227 219 221 216
327 330 328 324 326 318 324 333 338 341 345 348 355 351 351 349 304 246 216 200 201 214 223 229 224 213 211 211 214 219 222 225 224 225 223 224 229 232
331 334 332 327 332 323 325 334 339 344 348 355 0 7 7 9 14 221 221 224 231 237 229 215 210 207 207 209 211 217 222 223 224 227 223 226 232 236
335 337 336 331 334 334 324 331 338 345 350 357 2 9 19 26 39 71 189 207 208 194 190 194 200 202 204 206 209 215 219 221 225 226 224 224 229 229
339 341 340 335 332 337 328 324 335 344 349 355 3 8 12 24 39 66 108 146 164 170 177 184 191 198 201 202 207 212 212 218 223 224 223 228 227 231
343 345 345 341 334 333 337 322 325 337 347 352 359 6 12 13 13 43 105 136 149 159 165 171 180 189 196 200 205 211 217 220 220 221 223 226 230 231
346 348 348 344 337 333 334 334 317 323 338 346 351 359 10 18 25 36 106 172 168 169 173 179 189 199 208 214 219 224 229 230 230 228 227 230 233 234
342 348 350 349 343 336 334 334 330 309 317 331 337 343 352 14 33 63 91 116 132 138 146 153 163 179 194 203 207 211 216 220 222 226 231 236 241 242
334 341 348 351 350 343 335 331 328 326 297 300 313 318 320 333 353 54 97 115 123 130 133 135 139 143 151 153 157 166 174 180 184 191 197 201 213 232
326 333 339 345 351 350 343 332 327 323 318 287 281 290 291 287 279 245 199 179 166 157 152 150 152 155 159 164 168 169 172 176 177 175 177 187 197 207
318 323 330 337 345 350 351 343 329 320 314 306 280 266 269 268 261 250 236 217 206 194 187 184 181 180 182 188 188 189 189 190 194 192 187 185 188 199
310 314 320 325 332 340 347 349 342 328 316 310 300 270 256 256 256 251 244 236 222 217 210 208 208 205 204 205 208 210 211 211 211 212 214 212 211 209